COSMOS 1500 (14372 NORAD) Tracking and Keplerian Element Data

This shows tracking and keplerian element data for the satellite.

Feedback or suggestion? Click here.




ElementValue
Catalog14372
NameCOSMOS 1500
Epoch Orbit20262
Epoch Day13.13748956
Epoch Year2024
RAAN119.71
Inclination82.5113
Eccentricity0.0009721
Argument of Perigee343.7937
Mean Anonmoly16.2993
Mean Motion15.33455202
Decay Rate0.00018954
L11 14372U 83099A 24013.13748956 .00018954 00000+0 58385-3 0 9997
L22 14372 82.5113 119.7100 0009721 343.7937 16.2993 15.33455202202625



Live tracking and technical data element details for COSMOS 1500 (NORAD 14372). COSMOS 1500 can be tracked NOW for your location showing map with azimuth and elevation plus other details from your city location.







IsCatalogInMostPopularTable: catalog: 14372, numindb: 338
Update: records affected: 1



GetName: 14372 COSMOS 1500

Hit Count: updated at: Mon, 15 Apr 2024 00:19:14 GMT